Location: ???????
(55.4362°N, 38.1183°E)
Time: 18:14:16
(UTC+00:00)

Cosmos 2278 Rocket - Pass Details

Date: 29 October 2021
Orbit: 841 x 845 km, 71.0° (Epoch: 28 November)

Event Time Altitude Azimuth Distance (km) Brightness Sun altitude
Rises 16:32:20 0° 325° (NW) 3,418 6.0 -22.7°
Reaches altitude 10° 16:34:48 10° 324° (NW) 2,479 5.2 -23.0°
Maximum altitude 16:40:29 78° 240° (WSW) 870 2.2 -23.8°
Enters shadow 16:42:41 39° 161° (SSE) 1,253 2.8 -24.1°
